Location: Gleizolles
(44.4833°N, 6.7667°E)
Time: 10:19:16
(UTC+00:00)

Altair - Pass Details

Date: 01 July 2024
Orbit: 1502 x 1682 km, 47.2° (Epoch: 20 July)

Event Time Altitude Azimuth Distance (km) Brightness Sun altitude
Rises 01:41:28 0° 272° (W) 4,638 9.8 -16.7°
Reaches altitude 10° 01:44:29 10° 274° (W) 3,663 9.2 -16.4°
Maximum altitude 01:53:44 75° 0° (N) 1,579 7.7 -15.5°
Drops below altitude 10° 02:03:16 10° 87° (E) 3,772 10.1 -14.6°
Sets 02:06:25 0° 89° (E) 4,781 10.6 -14.3°
